Location: Unspecified
(52.4292°N, 19.3359°E)
Time: 19:41:54
(UTC+02:00)

A-11 Canister half - Pass Details

Date: 19 May 2024
Orbit: 1515 x 1685 km, 47.2° (Epoch: 12 June)

Event Time Altitude Azimuth Distance (km) Brightness Sun altitude
Rises 10:29:30 0° 285° (WNW) 4,664 11.2 48.9°
Reaches altitude 10° 10:33:12 10° 273° (W) 3,677 10.8 49.4°
Maximum altitude 10:40:10 25° 224° (SW) 2,697 10.6 50.1°
Drops below altitude 10° 10:47:12 10° 174° (S) 3,704 11.7 50.9°
Sets 10:50:58 0° 162° (SSE) 4,705 12.1 51.3°
